Home   Weather   Charlotte   Past weeks
Flag for USA

Past Weather in Charlotte, North Carolina, USA — Yesterday and Last 2 Weeks

Now
70 °F

Mostly cloudy.


Feels Like: 77 °F
Forecast: 72 / 55 °F
Wind: 8 mph from South

Location: Charlotte / Douglas International Airport

Current Time: Oct 15, 2019 at 10:11:27 pm

Latest Report: Oct 15, 2019 at 8:52 pm


Visibility: 10 mi

Pressure: 30.00 "Hg

Humidity: 51%

Dew Point: 51 °F

Location of CharlotteLocation

Past Weather in Charlotte — Graph

°F

Charlotte Temperature Yesterday

Maximum temperature yesterday: 78 °F (at 4:52 pm)
Minimum temperature yesterday: 57 °F (at 10:52 pm)
Average temperature yesterday: 65 °F

High & Low Weather Summary for the Past Weeks

 TemperatureHumidityPressure
High97 °F (Oct 2, 3:52 pm)97% (Oct 14, 7:34 am)30.29 "Hg (Oct 14, 7:34 am)
Low50 °F (Oct 11, 4:52 am)25% (Oct 14, 4:52 pm)29.91 "Hg (Oct 2, 5:52 pm)
Average71 °F67%30.08 "Hg
* Reported Sep 30 8:52 pm — Oct 15 8:52 pm, Charlotte. Weather by CustomWeather, © 2019

Note: Actual official high and low records may vary slightly from our data, if they occured in-between our weather recording intervals... More about our weather records

Advertising

Charlotte Weather History for the Previous 24 Hours

Scroll right to see more
 ConditionsComfort  
Time TempWeatherWind HumidityBarometerVisibility
8:52 pm
Tue, Oct 15
70 °FMostly cloudy.8 mph51%30.00 "Hg10 mi
7:52 pm68 °FMostly cloudy.5 mph51%30.01 "Hg10 mi
6:52 pm70 °FOvercast.7 mph47%30.01 "Hg10 mi
5:52 pm73 °FPartly sunny.6 mph43%30.03 "Hg10 mi
4:52 pm76 °FMore clouds than sun.9 mph35%30.03 "Hg10 mi
3:52 pm76 °FMore clouds than sun.6 mph36%30.04 "Hg10 mi
2:52 pm77 °FBroken clouds.5 mph31%30.06 "Hg10 mi
1:52 pm76 °FBroken clouds.6 mph32%30.07 "Hg10 mi
12:52 pm75 °FPartly sunny.8 mph34%30.10 "Hg10 mi
11:52 am73 °FPartly sunny.7 mph37%30.12 "Hg10 mi
10:52 am71 °FScattered clouds.5 mph39%30.14 "Hg10 mi
9:52 am66 °FScattered clouds.8 mph47%30.14 "Hg10 mi
8:52 am59 °FPartly sunny.5 mph69%30.14 "Hg10 mi
7:52 am54 °FPartly sunny.3 mph80%30.14 "Hg10 mi
6:52 am52 °FPassing clouds.3 mph89%30.14 "Hg10 mi
5:52 am50 °FPassing clouds.3 mph93%30.11 "Hg10 mi
4:52 am52 °FPassing clouds.3 mph93%30.09 "Hg10 mi
3:52 am51 °FPassing clouds.No wind89%30.10 "Hg10 mi
2:52 am52 °FClear.3 mph93%30.09 "Hg10 mi
1:52 am55 °FClear.No wind87%30.09 "Hg10 mi
12:52 am53 °FPassing clouds.5 mph86%30.09 "Hg10 mi
11:52 pm
Mon, Oct 14
58 °FPassing clouds.No wind75%30.10 "Hg10 mi
10:52 pm57 °FPassing clouds.No wind78%30.10 "Hg10 mi
Weather by CustomWeather, © 2019

See weather overview